[Iaude] MPEC E189: 2024 EK4 [a=1.43,e=0.28,i=4.8,H=27.8]

mpec at cfa.harvard.edu mpec at cfa.harvard.edu
Thu Mar 14 19:28:29 EDT 2024


M.P.E.C. 2024-E189                               Issued 2024 March 14, 23:23 UT

     The Minor Planet Electronic Circulars contain information on unusual
         minor planets, routine data on comets and natural satellites,
         and occasional editorial announcements.  They are published
    on behalf of Division F of the International Astronomical Union by the
          Minor Planet Center, Smithsonian Astrophysical Observatory,
                          Cambridge, MA 02138, U.S.A.
			  
             Prepared using the Tamkin Foundation Computer Network

                              MPC at CFA.HARVARD.EDU
            URL https://www.minorplanetcenter.net/    ISSN 1523-6714

                                    2024 EK4                                    


Observations:
     K24E04K* C2024 03 14.33212911 45 26.518+10 12 45.22         20.47GVEE189V00
     K24E04K  C2024 03 14.33837411 45 29.416+10 11 01.82         20.44GVEE189V00
     K24E04K  C2024 03 14.34461311 45 32.353+10 09 16.67         20.51GVEE189V00
     K24E04K  C2024 03 14.35084611 45 35.230+10 07 33.46         20.42GVEE189V00
     K24E04K KC2024 03 14.37436811 45 46.051+10 00 57.28         20.53GVEE189V06
     K24E04K KC2024 03 14.37502411 45 46.357+10 00 46.19         21.04GVEE189V06
     K24E04K KC2024 03 14.37516 11 45 46.67 +10 00 46.2          20.2 RVEE189291
     K24E04K KC2024 03 14.37567911 45 46.674+10 00 35.17         20.39GVEE189V06
     K24E04K KC2024 03 14.37633811 45 46.987+10 00 24.19         20.84GVEE189V06
     K24E04K KC2024 03 14.37900 11 45 48.48 +09 59 41.8          20.2 RVEE189291
     K24E04K KC2024 03 14.38296 11 45 50.35 +09 58 35.3          20.0 RVEE189291
     K24E04K hC2024 03 14.83308511 50 31.31 +07 51 25.7          21.1 GVEE189L01
     K24E04K hC2024 03 14.83906711 50 34.32 +07 49 45.2          20.9 GVEE189L01
     K24E04K 1C2024 03 14.84196 11 50 34.97 +07 48 33.2          19.7 VXEE189033
     K24E04K hC2024 03 14.84206911 50 35.90 +07 48 56.3          21.0 GVEE189L01
     K24E04K 1C2024 03 14.84272 11 50 35.37 +07 48 20.3          19.6 VXEE189033
     K24E04K 1C2024 03 14.84347 11 50 35.75 +07 48 08.5          19.5 VXEE189033
     K24E04K 1C2024 03 14.84423 11 50 36.16 +07 47 55.0          19.8 VXEE189033
     K24E04K KB2024 03 14.94143611 51 29.57 +07 21 08.4          19.5 GXEE189958
     K24E04K KB2024 03 14.94772411 51 32.59 +07 19 21.2          19.9 GXEE189958
     K24E04K KB2024 03 14.95396811 51 35.70 +07 17 36.5          19.8 GXEE189958

Observer details:
033 Karl Schwarzschild Observatory, Tautenburg.  Observers S. Melnikov, C.
    Hogner, F. Ludwig, M. Hartmann, B. Stecklum.  Measurer B. Stecklum.
    1.34-m f/3 Schmidt + CCD.
291 LPL/Spacewatch II.  Observer A. F. Tubbiolo.  1.8-m f/2.7 reflector + CCD.
958 Observatoire de Dax.  Observer P. Dupouy.  0.50-m f/4.5 Reflector + CMO.
L01 Visnjan Observatory, Tican.  Observers K. Korlevic, I. Lyon.  Measurer K.
    Korlevic.  1.0-m f/2.9 reflector + CCD.
V00 Kitt Peak-Bok.  Observer R. A. Mastaler.  Measurers M. J. Brucker, C. E.
    Woodward, T. Beuden, V. F. Carvajal, D. Fay, J. B. Fazekas, D. C. Fuls, A.
    R. Gibbs, H. Groeller, J. K. Hogan, R. A. Kowalski, S. M. Larson, C.
    Lejoly, G. J. Leonard, R. A. Mastaler, R. S. McMillan, D. Rankin, R. L.
    Seaman, F. C. Shelly, K. W. Wierzchos.  2.25-m reflector + 4x4K mosaic
    CCD.
V06 Catalina Sky Survey-Kuiper.  Observer G. J. Leonard.  Measurers T. Beuden,
    V. F. Carvajal, D. Fay, J. B. Fazekas, D. C. Fuls, A. R. Gibbs, A. D.
    Grauer, H. Groeller, J. K. Hogan, R. A. Kowalski, S. M. Larson, G. J.
    Leonard, D. Rankin, R. L. Seaman, F. C. Shelly, K. W. Wierzchos.  1.55-m
    reflector + 1K CCD.

Orbital elements:
2024 EK4                                                 Earth MOID = 0.0269 AU
Epoch 2024 Mar. 31.0 TT = JDT 2460400.5                 Veres                   
M  10.20973              (2000.0)            P               Q                  
n   0.57798700     Peri.  176.38801     -0.99208195     -0.12548365             
a   1.4273287      Node   356.39080     +0.11305076     -0.87413719             
e   0.2844242      Incl.    4.75672     +0.05470760     -0.46918870             
P   1.71           H   27.81          G   0.15           U   8                  
Residuals in seconds of arc
240314 V00  0.1+  0.3-    240314 V06  0.1+  0.1-    240314 L01  0.2-  0.8+
240314 V00  0.0   0.3+    240314 V06  0.1+  0.0     240314 033  0.1-  0.1-
240314 V00 (0.4+  0.8-)   240314 291  0.2+  0.4-    240314 033  0.3-  0.7+
240314 V00  0.2-  0.1+    240314 291  0.1+  0.5-    240314 033  0.2-  0.1-
240314 V06  0.1+  0.0     240314 L01  0.9+  0.2-    240314 958  0.7+  0.4+
240314 V06  0.0   0.1-    240314 L01  0.6-  0.6-    240314 958  0.5-  0.7-
240314 291  0.2+  0.4-    240314 033  0.1-  0.0     240314 958  0.1+  0.1-

Ephemeris:
2024 EK4                 a,e,i = 1.43, 0.28, 5                   q = 1.0214
Date    TT    R. A. (2000) Decl.     Delta      r    Elong.  Phase     V
2024 02 13    08 48 10.4 +53 58 15   0.08763 1.0543   138.3    38.5    24.2
...
2024 02 28    09 41 23.2 +48 40 08   0.05173 1.0293   137.8    40.3    23.0
...
2024 03 07    10 37 53.1 +36 27 10   0.03569 1.0228   148.0    31.0    21.9
...
2024 03 13    11 32 34.5 +16 12 56   0.02805 1.0213   166.7    12.9    20.9
2024 03 14    11 42 14.1 +11 46 20   0.02744 1.0213   170.7     9.1    20.7
2024 03 15    11 51 55.9 +07 08 05   0.02706 1.0214   174.2     5.6    20.5
...
2024 03 21    12 48 10.5 -19 43 17   0.02982 1.0237   157.4    21.9    21.3
...
2024 03 29    13 48 22.7 -40 23 36   0.04290 1.0312   139.1    39.4    22.6
...
2024 04 13    14 46 37.1 -51 22 36   0.07660 1.0578   134.5    42.5    24.0

M. P. C. Staff               (C) Copyright 2024 MPC           M.P.E.C. 2024-E189





More information about the Iaude mailing list